SUPERVIEW NEO-1 01 (52320 NORAD) Tracking and Keplerian Element Data
This shows tracking and keplerian element data for the satellite.
Feedback or suggestion? Click here.
Element | Value |
Catalog | 52320 |
Name | SUPERVIEW NEO-1 01 |
Epoch Orbit | 727 |
Epoch Day | 166.93092167 |
Epoch Year | 2022 |
RAAN | 242.3885 |
Inclination | 97.4728 |
Eccentricity | 0.0014278 |
Argument of Perigee | 95.2237 |
Mean Anonmoly | 19.7823 |
Mean Motion | 15.23454687 |
Decay Rate | 6.313E-05 |
L1 | 1 52320U 22043A 22166.93092167 .00006313 00000+0 26716-3 0 9994 |
L2 | 2 52320 97.4728 242.3885 0014278 95.2237 19.7823 15.23454687 7274 |
Live tracking and technical data element details for SUPERVIEW NEO-1 01 (NORAD 52320). SUPERVIEW NEO-1 01 can be tracked NOW for your location showing map with azimuth and elevation plus other details from your city location.
Track the satellite on the map from your city or location and see movement details for azimuth, elevation, latitude, longitude, range, height, and movement on the map or in text.
IsCatalogInMostPopularTable: catalog: 52320, numindb: 6
Update: records affected: 1
GetName: 52320 SUPERVIEW NEO-1 01
Hit Count: updated at: Mon, 27 Jun 2022 05:50:22 GMT